QPF
0.00 0.00 0.00 0.00 0.00 0.00 0.00 0.00 0.00 0.00 0.00 0.00 0.03 0.02 0.00 0.00 0.00 0.00 0.00 0.00 0.00 0.00 0.00 0.00 0.00 0.02 0.03 0.01 0.05 0.03 0.01 0.00 0.01 0.00 0.02 0.00 0.00 0.00 0.00 0.00 0.00 0.00 0.00
0.00 0.00 0.00 0.00 0.00 0.00 0.00 0.00 0.00 0.00 0.00 0.00 0.00 0.00 0.00 0.00 0.00 0.00 0.01 0.00 0.00 0.01 0.00 0.04 0.01 0.00 0.00 0.00 0.01 0.06 0.03 0.04 0.01 0.00 0.00 0.00 0.00 0.00 0.00 0.00 0.00 0.00 0.00
0.00 0.00 0.00 0.01 0.01 0.01 0.00 0.00 0.00 0.00 0.00 0.00 0.00 0.00 0.00 0.00 0.01 0.00 0.01 0.02 0.00 0.01 0.02 0.00 0.00 0.00 0.00 0.01 0.00 0.01 0.01 0.06 0.00 0.01 0.01 0.00 0.00 0.01 0.00 0.00 0.00 0.00 0.00
0.01 0.01 0.01 0.03 0.04 0.06 0.04 0.02 0.00 0.01 0.01 0.02 0.02 0.01 0.03 0.03 0.01 0.00 0.01 0.05 0.05 0.02 0.00 0.01 0.01 0.02 0.07 0.05 0.09 0.07 0.08 0.19 0.19 0.09 0.09 0.02 0.02 0.03 0.05 0.04 0.03 0.01 0.01
0.00 0.00 0.00 0.00 0.00 0.01 0.02 0.02 0.01 0.01 0.02 0.03 0.03 0.03 0.03 0.09 0.08 0.07 0.30 0.45 0.45 0.27 0.14 0.03 0.01 0.03 0.06 0.04 0.05 0.08 0.25 0.17 0.10 0.07 0.06 0.10 0.04 0.04 0.04 0.02 0.02 0.02 0.02
0.00 0.00 0.01 0.02 0.01 0.00 0.01 0.02 0.02 0.03 0.05 0.02 0.02 0.03 0.04 0.05 0.05 0.48 0.77 0.46 0.17 0.14 0.19 0.05 0.00 0.01 0.02 0.06 0.12 0.24 0.17 0.12 0.03 0.05 0.01 0.02 0.01 0.01 0.01 0.02 0.02 0.02 0.00
0.00 0.00 0.00 0.01 0.01 0.00 0.00 0.00 0.00 0.00 0.00 0.01 0.02 0.01 0.02 0.03 0.09 0.16 0.41 0.21 0.03 0.08 0.10 0.01 0.07 0.04 0.16 0.27 0.34 0.26 0.12 0.05 0.03 0.07 0.01 0.00 0.00 0.00 0.00 0.01 0.02 0.00 0.00
0.00 0.00 0.00 0.00 0.00 0.00 0.00 0.00 0.00 0.00 0.00 0.00 0.00 0.00 0.00 0.00 0.02 0.01 0.06 0.09 0.02 0.05 0.10 0.04 0.04 0.04 0.05 0.24 0.45 0.35 0.13 0.08 0.10 0.05 0.02 0.00 0.00 0.00 0.00 0.01 0.09 0.07 0.02
0.00 0.00 0.00 0.00 0.00 0.00 0.00 0.00 0.00 0.00 0.00 0.00 0.00 0.00 0.00 0.00 0.02 0.01 0.00 0.00 0.00 0.00 0.01 0.06 0.07 0.07 0.16 0.23 0.18 0.06 0.02 0.07 0.12 0.10 0.03 0.01 0.04 0.02 0.02 0.08 0.11 0.13 0.02
0.00 0.00 0.00 0.00 0.00 0.00 0.00 0.00 0.00 0.00 0.00 0.00 0.00 0.00 0.00 0.00 0.00 0.01 0.00 0.00 0.00 0.00 0.00 0.00 0.00 0.00 0.01 0.03 0.03 0.03 0.01 0.00 0.03 0.09 0.16 0.18 0.08 0.03 0.10 0.14 0.17 0.13 0.08
0.00 0.00 0.00 0.00 0.00 0.00 0.00 0.00 0.00 0.00 0.00 0.00 0.00 0.00 0.00 0.00 0.00 0.00 0.00 0.00 0.00 0.00 0.00 0.00 0.00 0.00 0.00 0.00 0.00 0.00 0.00 0.00 0.02 0.05 0.10 0.10 0.13 0.16 0.17 0.16 0.20 0.16 0.13
0.00 0.00 0.00 0.00 0.00 0.00 0.00 0.00 0.00 0.00 0.00 0.00 0.00 0.00 0.00 0.00 0.00 0.00 0.00 0.01 0.01 0.01 0.01 0.00 0.00 0.00 0.00 0.00 0.00 0.00 0.00 0.00 0.00 0.00 0.02 0.04 0.05 0.06 0.07 0.09 0.15 0.23 0.14
0.00 0.00 0.00 0.00 0.00 0.00 0.00 0.00 0.00 0.00 0.00 0.00 0.00 0.00 0.00 0.00 0.00 0.00 0.00 0.00 0.00 0.00 0.00 0.00 0.00 0.00 0.00 0.00 0.00 0.00 0.00 0.00 0.00 0.00 0.00 0.03 0.09 0.08 0.08 0.10 0.14 0.20 0.25
0.00 0.00 0.00 0.00 0.00 0.00 0.00 0.00 0.00 0.00 0.00 0.00 0.00 0.00 0.00 0.00 0.00 0.00 0.00 0.00 0.00 0.00 0.00 0.00 0.00 0.00 0.00 0.00 0.00 0.00 0.00 0.00 0.00 0.00 0.00 0.02 0.07 0.11 0.12 0.10 0.09 0.09 0.11
0.00 0.00 0.00 0.00 0.00 0.00 0.00 0.00 0.00 0.00 0.00 0.00 0.00 0.00 0.00 0.00 0.00 0.00 0.00 0.00 0.00 0.00 0.00 0.00 0.00 0.00 0.00 0.00 0.00 0.00 0.00 0.00 0.00 0.01 0.02 0.04 0.08 0.12 0.16 0.27 0.25 0.21 0.14
0.00 0.00 0.00 0.00 0.00 0.00 0.00 0.00 0.00 0.00 0.00 0.00 0.00 0.00 0.00 0.00 0.00 0.00 0.00 0.00 0.00 0.00 0.00 0.00 0.00 0.00 0.00 0.00 0.00 0.03 0.04 0.04 0.03 0.04 0.02 0.05 0.11 0.15 0.17 0.18 0.19 0.23 0.22
0.00 0.00 0.00 0.00 0.00 0.00 0.00 0.00 0.00 0.00 0.00 0.00 0.00 0.00 0.00 0.00 0.00 0.00 0.00 0.00 0.00 0.00 0.00 0.00 0.00 0.00 0.00 0.00 0.00 0.01 0.03 0.06 0.08 0.09 0.08 0.05 0.08 0.10 0.12 0.10 0.08 0.06 0.08
0.00 0.00 0.00 0.00 0.00 0.00 0.00 0.00 0.00 0.00 0.00 0.00 0.00 0.00 0.00 0.00 0.00 0.00 0.00 0.00 0.00 0.00 0.00 0.00 0.00 0.00 0.00 0.00 0.00 0.01 0.03 0.03 0.06 0.07 0.08 0.08 0.11 0.13 0.11 0.07 0.03 0.02 0.02
0.00 0.00 0.00 0.00 0.00 0.00 0.00 0.00 0.00 0.00 0.00 0.00 0.00 0.00 0.00 0.00 0.00 0.00 0.00 0.00 0.00 0.00 0.00 0.00 0.00 0.00 0.00 0.00 0.00 0.01 0.00 0.00 0.00 0.01 0.03 0.05 0.05 0.06 0.09 0.11 0.09 0.06 0.08
0.00 0.00 0.00 0.00 0.00 0.00 0.00 0.00 0.00 0.00 0.00 0.00 0.00 0.00 0.00 0.00 0.00 0.00 0.00 0.00 0.00 0.00 0.00 0.00 0.00 0.00 0.00 0.00 0.00 0.00 0.00 0.00 0.00 0.00 0.00 0.02 0.04 0.04 0.03 0.05 0.10 0.10 0.10
0.00 0.00 0.00 0.00 0.00 0.00 0.00 0.00 0.00 0.00 0.00 0.00 0.00 0.00 0.00 0.00 0.00 0.00 0.00 0.00 0.00 0.00 0.00 0.00 0.00 0.00 0.01 0.00 0.00 0.00 0.00 0.00 0.00 0.00 0.01 0.00 0.00 0.00 0.00 0.01 0.02 0.02 0.03
0.00 0.00 0.00 0.00 0.00 0.00 0.00 0.00 0.00 0.00 0.00 0.00 0.00 0.00 0.00 0.00 0.00 0.00 0.00 0.00 0.00 0.00 0.00 0.00 0.00 0.00 0.00 0.00 0.00 0.00 0.00 0.00 0.00 0.00 0.00 0.01 0.00 0.00 0.00 0.00 0.00 0.00 0.00
0.00 0.00 0.00 0.00 0.00 0.00 0.00 0.00 0.00 0.00 0.00 0.00 0.00 0.00 0.00 0.00 0.00 0.00 0.00 0.00 0.00 0.00 0.00 0.00 0.00 0.00 0.00 0.00 0.00 0.00 0.00 0.00 0.00 0.00 0.00 0.00 0.01 0.02 0.02 0.01 0.01 0.01 0.01
0.00 0.00 0.00 0.00 0.00 0.00 0.00 0.00 0.00 0.00 0.00 0.00 0.00 0.00 0.00 0.00 0.00 0.00 0.00 0.00 0.00 0.00 0.00 0.00 0.00 0.00 0.00 0.00 0.00 0.00 0.00 0.00 0.00 0.00 0.00 0.00 0.00 0.01 0.01 0.03 0.02 0.01 0.01
0.00 0.00 0.00 0.00 0.00 0.00 0.00 0.00 0.00 0.00 0.00 0.00 0.00 0.00 0.00 0.00 0.00 0.00 0.00 0.00 0.00 0.00 0.00 0.00 0.00 0.00 0.00 0.00 0.00 0.00 0.00 0.00 0.00 0.00 0.00 0.00 0.00 0.00 0.02 0.03 0.02 0.01 0.00
0.00 0.00 0.00 0.00 0.00 0.00 0.00 0.00 0.00 0.00 0.00 0.00 0.00 0.00 0.00 0.00 0.00 0.00 0.00 0.00 0.00 0.00 0.00 0.00 0.00 0.00 0.00 0.00 0.00 0.00 0.00 0.00 0.00 0.00 0.00 0.00 0.00 0.00 0.01 0.01 0.01 0.01 0.01
MSLP
1009.84 1010.36 1010.98 1011.48 1011.78 1012.16 1012.47 1012.74 1012.95 1013.19 1013.36 1013.74 1013.94 1014.11 1013.92 1014.16 1014.42 1015.00 1015.34 1015.59 1015.69 1015.84 1016.02 1016.25 1016.35 1016.51 1016.77 1016.80 1016.85 1016.98 1016.95 1017.26 1017.34 1016.59 1016.49 1015.84 1015.81 1015.93 1016.40 1017.00 1017.49 1018.11 1018.46
1009.44 1010.09 1010.56 1010.94 1011.26 1011.62 1011.89 1012.00 1012.12 1012.41 1012.66 1012.71 1013.10 1013.27 1013.40 1013.61 1013.98 1014.28 1014.77 1015.04 1015.23 1015.43 1015.61 1015.89 1015.98 1016.11 1016.25 1016.37 1016.51 1016.70 1016.55 1016.65 1016.71 1016.50 1016.05 1015.85 1015.65 1015.40 1015.75 1016.47 1016.81 1017.33 1017.66
1009.33 1009.77 1010.04 1010.31 1010.67 1010.95 1011.18 1011.19 1011.27 1011.59 1011.75 1011.99 1012.25 1012.53 1012.81 1013.08 1013.49 1013.71 1013.89 1014.20 1014.52 1014.84 1015.18 1015.48 1015.46 1015.66 1015.83 1015.78 1015.89 1016.07 1015.99 1015.94 1016.03 1016.18 1016.03 1015.56 1015.62 1015.78 1016.04 1016.14 1016.39 1016.55 1016.99
1009.37 1009.70 1009.72 1009.97 1010.54 1010.86 1010.84 1010.99 1010.85 1010.78 1011.00 1011.32 1011.52 1011.87 1012.00 1012.27 1012.71 1013.01 1013.10 1013.30 1013.75 1014.12 1014.38 1014.51 1014.66 1014.82 1014.88 1014.95 1015.10 1015.22 1015.36 1015.72 1015.88 1016.00 1016.27 1016.06 1015.71 1015.58 1015.81 1016.34 1016.45 1016.40 1016.62
1010.05 1010.23 1010.32 1010.46 1010.51 1010.73 1010.94 1010.89 1010.65 1010.71 1010.77 1010.93 1011.03 1011.29 1011.46 1011.74 1012.05 1012.30 1012.35 1012.71 1013.66 1014.57 1014.47 1013.73 1013.60 1013.85 1014.14 1014.28 1014.43 1014.65 1014.91 1015.13 1015.34 1015.58 1015.85 1015.95 1015.61 1015.45 1015.39 1015.56 1016.01 1015.75 1016.01
1010.52 1010.90 1011.12 1010.94 1010.84 1010.97 1011.05 1011.07 1010.99 1010.90 1010.88 1011.05 1011.17 1011.23 1011.30 1011.21 1011.60 1011.66 1011.90 1012.37 1013.16 1012.34 1013.47 1012.53 1012.25 1012.50 1012.93 1013.40 1013.71 1013.78 1013.86 1014.31 1014.41 1014.68 1014.68 1015.15 1014.59 1014.62 1014.51 1014.69 1015.12 1015.62 1015.68
1011.28 1011.59 1011.68 1011.60 1011.60 1011.58 1011.42 1011.39 1011.35 1011.30 1011.25 1011.35 1011.47 1011.35 1011.29 1011.23 1011.39 1011.54 1011.99 1012.31 1012.44 1012.81 1012.54 1012.33 1011.75 1011.65 1012.14 1012.88 1013.09 1012.45 1013.58 1013.14 1013.18 1013.71 1013.94 1013.64 1013.44 1013.24 1013.71 1013.89 1014.05 1014.00 1013.82
1012.02 1012.24 1012.35 1012.39 1012.44 1012.40 1012.31 1012.19 1011.99 1011.73 1011.62 1011.48 1011.35 1011.23 1011.20 1011.19 1011.16 1011.54 1011.82 1011.97 1012.17 1012.25 1012.17 1012.16 1012.03 1011.58 1011.56 1012.07 1012.51 1012.80 1012.47 1012.42 1012.64 1012.67 1012.68 1012.29 1012.29 1012.22 1012.46 1012.70 1013.04 1013.27 1013.17
1012.71 1012.86 1012.91 1012.96 1013.03 1013.02 1012.91 1012.71 1012.47 1012.34 1012.18 1011.97 1011.65 1011.42 1011.35 1011.25 1011.28 1011.54 1011.68 1011.68 1011.76 1011.66 1011.47 1011.28 1011.24 1011.26 1011.26 1011.42 1011.69 1011.85 1011.66 1011.50 1011.47 1011.56 1011.33 1011.14 1011.32 1011.31 1011.32 1012.12 1012.43 1012.97 1012.88
1013.24 1013.23 1013.12 1013.19 1013.35 1013.31 1013.28 1013.15 1012.84 1012.66 1012.55 1012.27 1012.01 1011.63 1011.37 1011.30 1011.18 1011.11 1011.27 1011.44 1011.47 1011.33 1011.17 1011.03 1010.87 1010.75 1010.70 1010.71 1010.95 1011.01 1011.05 1010.82 1010.89 1010.91 1010.96 1011.02 1010.88 1010.49 1010.48 1010.95 1011.02 1011.65 1011.67
1013.25 1013.20 1013.20 1013.19 1013.26 1013.26 1013.21 1013.07 1012.96 1012.89 1012.74 1012.61 1012.40 1012.01 1011.76 1011.91 1011.74 1011.31 1011.16 1011.16 1011.19 1011.12 1011.11 1011.11 1011.07 1010.88 1011.03 1010.91 1010.95 1011.12 1010.90 1010.66 1010.48 1010.45 1010.31 1010.19 1010.11 1009.97 1009.97 1009.96 1010.03 1010.18 1010.64
1013.35 1013.38 1013.25 1013.12 1013.09 1013.04 1013.10 1013.04 1012.91 1012.95 1013.02 1013.12 1012.98 1012.76 1012.61 1012.50 1012.23 1011.97 1011.78 1011.76 1011.62 1011.57 1011.46 1011.28 1011.15 1010.88 1010.60 1010.43 1010.40 1010.18 1010.05 1010.15 1010.24 1010.17 1010.00 1009.69 1009.47 1009.00 1008.52 1008.36 1008.37 1008.67 1008.42
1013.51 1013.44 1013.26 1013.04 1013.03 1012.97 1013.03 1013.09 1013.14 1013.12 1013.22 1013.25 1013.15 1013.06 1012.96 1012.64 1012.45 1012.24 1012.13 1012.00 1011.84 1011.74 1011.46 1011.26 1010.99 1010.64 1010.20 1009.89 1009.61 1009.42 1009.31 1009.57 1009.67 1009.52 1009.02 1008.67 1008.41 1007.81 1007.46 1007.35 1007.20 1007.15 1007.36
1013.54 1013.49 1013.36 1013.32 1013.28 1013.27 1013.20 1013.20 1013.15 1013.28 1013.42 1013.48 1013.46 1013.37 1013.12 1012.94 1012.72 1012.45 1012.32 1012.17 1011.96 1011.75 1011.57 1011.35 1010.96 1010.46 1009.97 1009.64 1009.29 1008.68 1008.66 1008.60 1008.55 1008.31 1007.98 1007.62 1007.37 1007.03 1006.72 1006.31 1006.21 1006.50 1007.07
1013.75 1013.85 1013.82 1013.91 1013.91 1013.86 1013.88 1013.76 1013.66 1013.45 1013.32 1013.29 1013.27 1013.41 1013.42 1013.17 1012.69 1012.62 1012.58 1012.47 1012.49 1012.33 1011.98 1011.30 1010.72 1010.24 1009.81 1009.20 1008.61 1008.22 1007.94 1007.90 1007.80 1007.47 1007.28 1006.88 1006.47 1006.12 1005.81 1005.54 1005.25 1005.77 1005.97
1014.02 1014.13 1014.27 1014.33 1014.27 1014.21 1014.10 1013.83 1013.40 1013.32 1013.10 1013.35 1013.43 1013.49 1013.14 1013.10 1012.84 1012.47 1012.42 1012.15 1012.26 1012.10 1011.78 1011.39 1010.75 1010.14 1009.61 1009.01 1008.50 1008.04 1007.76 1007.56 1007.12 1006.59 1006.65 1006.31 1005.90 1005.71 1005.26 1004.95 1004.92 1004.94 1005.07
1014.22 1014.23 1014.47 1014.40 1014.40 1014.34 1014.23 1014.23 1014.34 1013.49 1013.34 1013.13 1013.09 1013.18 1013.41 1013.24 1012.95 1012.71 1012.29 1011.76 1011.60 1011.90 1011.75 1011.00 1010.43 1009.76 1009.28 1008.80 1008.53 1008.20 1007.93 1007.55 1006.94 1006.47 1005.98 1005.83 1005.45 1005.23 1004.97 1004.58 1004.23 1004.49 1004.35
1014.04 1014.09 1014.24 1014.31 1014.40 1014.34 1014.40 1014.31 1014.21 1014.11 1013.86 1013.87 1013.65 1013.67 1013.56 1013.06 1012.94 1012.73 1012.36 1011.96 1012.04 1011.98 1011.73 1011.24 1010.65 1010.09 1009.64 1009.13 1008.71 1008.27 1007.90 1007.44 1007.09 1006.79 1006.30 1005.81 1005.30 1004.79 1004.64 1004.25 1003.86 1003.56 1003.66
1013.95 1014.05 1014.20 1014.32 1014.39 1014.36 1014.34 1014.06 1013.98 1013.82 1013.82 1014.20 1014.16 1013.84 1013.53 1013.40 1013.28 1013.02 1012.74 1012.80 1012.77 1012.55 1012.37 1011.87 1011.26 1010.56 1009.99 1009.56 1009.14 1008.58 1008.00 1007.65 1007.22 1006.89 1006.49 1006.10 1005.64 1005.36 1004.73 1004.35 1004.10 1003.42 1002.91
1013.89 1013.85 1014.08 1014.34 1014.40 1014.39 1014.22 1014.07 1013.99 1013.84 1013.82 1014.18 1014.07 1013.94 1013.61 1013.43 1013.29 1013.20 1013.11 1013.05 1012.98 1012.86 1012.65 1012.30 1011.73 1011.14 1010.46 1009.98 1009.47 1009.07 1008.50 1008.03 1007.64 1007.18 1006.70 1006.23 1005.80 1005.38 1004.88 1004.25 1004.04 1003.78 1003.34
1013.96 1014.01 1013.96 1014.40 1014.37 1014.37 1014.30 1014.33 1014.13 1014.09 1014.13 1014.28 1014.01 1013.68 1013.19 1013.45 1013.40 1013.24 1013.18 1013.11 1013.00 1012.79 1012.61 1012.40 1012.03 1011.67 1011.24 1010.69 1010.15 1009.78 1009.37 1008.85 1008.28 1007.88 1007.21 1006.56 1005.98 1005.43 1004.85 1004.29 1003.65 1003.31 1003.04
1013.66 1013.96 1014.08 1014.21 1014.36 1014.37 1014.35 1014.34 1014.25 1014.24 1014.14 1014.04 1013.85 1013.53 1013.07 1013.08 1013.29 1013.21 1013.10 1012.85 1012.52 1012.30 1012.16 1011.98 1011.82 1011.56 1011.24 1010.88 1010.55 1010.27 1009.95 1009.58 1009.09 1008.49 1007.64 1006.67 1005.90 1005.36 1004.70 1004.04 1003.58 1003.19 1002.94
1013.37 1013.74 1013.98 1014.05 1014.25 1014.43 1014.34 1014.33 1014.35 1014.34 1014.23 1014.02 1013.83 1013.58 1013.31 1013.18 1013.10 1012.83 1012.62 1012.56 1012.30 1012.07 1011.80 1011.59 1011.42 1011.21 1010.95 1010.63 1010.37 1010.35 1010.16 1009.78 1009.42 1008.88 1008.09 1006.99 1006.10 1005.46 1004.69 1004.01 1003.41 1002.95 1002.66
1013.31 1013.43 1013.72 1013.90 1014.02 1014.15 1014.16 1014.22 1014.22 1014.17 1014.13 1014.09 1013.86 1013.68 1013.45 1013.21 1012.98 1012.77 1012.35 1012.05 1011.97 1011.76 1011.47 1011.13 1010.99 1010.78 1010.60 1010.47 1010.29 1010.16 1009.97 1009.92 1009.48 1008.75 1008.16 1007.37 1006.35 1005.27 1004.50 1003.79 1003.33 1002.68 1002.20
1013.19 1013.33 1013.64 1013.84 1013.92 1014.11 1014.16 1014.28 1014.36 1014.29 1014.29 1014.24 1014.05 1013.92 1013.61 1013.29 1012.81 1012.40 1011.96 1011.83 1011.78 1011.49 1011.32 1011.02 1010.76 1010.56 1010.30 1010.54 1010.44 1010.14 1009.86 1009.61 1009.13 1008.65 1007.96 1007.17 1006.21 1005.17 1004.22 1003.35 1002.72 1002.19 1001.92
1012.99 1013.29 1013.54 1013.73 1014.05 1014.26 1014.25 1014.24 1014.24 1014.26 1014.37 1014.37 1014.20 1013.91 1013.50 1013.10 1012.63 1012.28 1012.05 1011.82 1011.65 1011.31 1011.10 1010.99 1010.73 1010.66 1010.54 1010.44 1010.28 1009.93 1009.59 1009.19 1008.64 1008.15 1007.67 1006.85 1005.81 1004.77 1003.83 1003.21 1002.55 1001.84 1001.40
Thickness
5823 5819 5814 5809 5806 5803 5800 5796 5792 5789 5789 5788 5787 5787 5791 5789 5788 5783 5779 5776 5774 5772 5768 5764 5762 5763 5764 5766 5767 5768 5768 5768 5764 5776 5779 5785 5784 5785 5782 5777 5774 5770 5767
5824 5819 5814 5811 5808 5804 5800 5798 5797 5790 5789 5793 5793 5793 5793 5792 5789 5785 5779 5777 5773 5770 5768 5765 5764 5765 5764 5764 5764 5763 5765 5766 5766 5766 5777 5781 5783 5787 5784 5780 5775 5771 5770
5823 5820 5817 5815 5810 5806 5802 5801 5798 5796 5796 5796 5795 5793 5792 5791 5788 5785 5783 5780 5776 5773 5769 5766 5768 5766 5764 5765 5764 5762 5763 5765 5767 5764 5767 5776 5778 5779 5777 5779 5777 5774 5771
5820 5817 5815 5811 5809 5804 5803 5801 5803 5804 5802 5800 5798 5796 5795 5793 5790 5787 5785 5782 5777 5774 5772 5771 5771 5770 5769 5769 5767 5765 5763 5760 5758 5757 5755 5758 5766 5772 5772 5768 5767 5771 5768
5812 5810 5808 5807 5806 5804 5801 5800 5802 5801 5801 5799 5797 5794 5793 5791 5789 5786 5785 5781 5769 5755 5760 5773 5774 5772 5771 5770 5768 5765 5762 5757 5754 5752 5750 5750 5756 5761 5764 5767 5766 5770 5767
5802 5797 5795 5797 5797 5796 5794 5794 5795 5795 5794 5793 5790 5789 5788 5788 5788 5785 5781 5771 5758 5757 5758 5773 5776 5778 5773 5767 5762 5761 5763 5757 5755 5753 5751 5743 5756 5759 5764 5765 5763 5758 5756
5792 5789 5787 5787 5785 5785 5786 5786 5786 5786 5786 5785 5783 5783 5783 5783 5782 5779 5773 5769 5767 5763 5765 5770 5775 5776 5773 5765 5758 5755 5752 5760 5762 5756 5752 5755 5758 5765 5762 5762 5763 5765 5768
5782 5779 5778 5776 5774 5774 5775 5775 5776 5778 5778 5778 5779 5779 5779 5778 5777 5772 5768 5766 5764 5764 5763 5764 5765 5768 5769 5764 5759 5754 5758 5760 5757 5758 5759 5764 5766 5767 5764 5767 5765 5763 5766
5772 5770 5769 5767 5764 5764 5763 5765 5768 5768 5769 5769 5771 5771 5770 5770 5769 5765 5763 5762 5760 5759 5761 5762 5764 5765 5764 5760 5758 5756 5758 5759 5757 5758 5761 5764 5764 5764 5764 5756 5757 5753 5755
5764 5764 5764 5761 5758 5756 5755 5757 5759 5760 5759 5760 5761 5763 5764 5762 5762 5762 5759 5758 5755 5754 5755 5757 5758 5760 5760 5759 5757 5757 5755 5756 5755 5754 5755 5758 5757 5761 5762 5759 5760 5751 5755
5760 5759 5758 5757 5754 5752 5751 5752 5751 5751 5752 5752 5751 5752 5752 5752 5752 5752 5752 5751 5750 5749 5747 5745 5746 5747 5746 5746 5744 5745 5747 5750 5751 5750 5750 5751 5752 5754 5755 5755 5755 5753 5746
5755 5753 5752 5751 5750 5749 5747 5746 5746 5745 5742 5740 5740 5739 5740 5739 5740 5741 5740 5737 5737 5736 5735 5737 5737 5737 5739 5740 5739 5740 5741 5741 5741 5739 5739 5741 5742 5746 5753 5755 5753 5749 5752
5748 5748 5748 5747 5745 5744 5742 5739 5738 5736 5733 5731 5731 5729 5727 5731 5731 5730 5729 5728 5727 5725 5727 5727 5728 5729 5731 5734 5736 5735 5734 5731 5729 5729 5734 5737 5738 5744 5747 5747 5749 5745 5742
5742 5741 5742 5739 5737 5735 5734 5732 5731 5727 5724 5723 5721 5719 5719 5719 5721 5721 5719 5718 5717 5717 5716 5714 5716 5719 5722 5724 5726 5728 5727 5726 5725 5725 5727 5731 5734 5735 5736 5740 5739 5735 5730
5734 5732 5731 5728 5725 5724 5722 5720 5720 5719 5717 5714 5713 5711 5707 5706 5709 5707 5705 5704 5701 5700 5699 5703 5706 5706 5708 5712 5716 5718 5718 5718 5716 5717 5718 5721 5724 5727 5729 5731 5734 5728 5725
5724 5723 5719 5717 5716 5714 5711 5711 5714 5712 5712 5707 5704 5700 5702 5700 5698 5696 5691 5690 5688 5687 5688 5689 5691 5693 5694 5697 5700 5702 5702 5702 5706 5710 5707 5710 5713 5714 5719 5722 5723 5722 5722
5716 5714 5710 5709 5706 5705 5704 5698 5694 5700 5700 5698 5694 5689 5683 5683 5682 5680 5679 5678 5677 5672 5673 5676 5678 5681 5682 5682 5681 5683 5684 5686 5690 5693 5696 5697 5701 5703 5704 5709 5712 5710 5715
5710 5709 5704 5701 5698 5696 5692 5688 5686 5682 5681 5679 5678 5674 5673 5671 5667 5663 5662 5662 5659 5655 5655 5656 5658 5659 5659 5661 5662 5663 5665 5668 5670 5672 5676 5680 5685 5690 5691 5695 5700 5702 5705
5704 5701 5698 5694 5691 5689 5685 5683 5679 5676 5672 5665 5662 5660 5659 5656 5653 5649 5646 5643 5640 5636 5632 5630 5632 5635 5638 5638 5637 5639 5643 5645 5647 5650 5653 5657 5661 5665 5673 5678 5681 5688 5694
5697 5696 5692 5687 5683 5678 5676 5673 5669 5667 5663 5654 5649 5645 5643 5640 5634 5630 5627 5622 5618 5615 5612 5610 5610 5611 5613 5614 5616 5616 5619 5620 5624 5627 5631 5635 5639 5643 5650 5658 5662 5665 5670
5689 5686 5684 5677 5673 5670 5666 5661 5656 5651 5646 5639 5639 5636 5632 5625 5620 5615 5609 5604 5601 5597 5594 5591 5590 5590 5590 5592 5593 5594 5595 5597 5599 5602 5607 5612 5616 5622 5629 5638 5646 5650 5655
5684 5680 5674 5669 5665 5661 5657 5652 5647 5641 5636 5631 5626 5623 5619 5612 5605 5600 5595 5591 5589 5586 5583 5580 5577 5575 5575 5575 5574 5574 5574 5574 5576 5579 5586 5594 5599 5604 5610 5618 5625 5630 5635
5679 5673 5667 5662 5659 5654 5648 5644 5638 5633 5627 5621 5616 5610 5606 5600 5596 5591 5588 5581 5579 5576 5574 5571 5569 5566 5565 5563 5561 5558 5557 5557 5558 5559 5565 5574 5581 5586 5592 5598 5603 5610 5616
5672 5670 5664 5658 5654 5648 5643 5637 5631 5625 5617 5609 5604 5599 5595 5590 5585 5580 5579 5576 5571 5569 5567 5565 5562 5559 5554 5551 5549 5546 5543 5541 5543 5546 5549 5554 5561 5570 5578 5584 5587 5592 5599
5667 5664 5658 5653 5649 5643 5636 5628 5619 5613 5605 5598 5592 5587 5582 5578 5575 5574 5572 5568 5563 5560 5557 5554 5551 5548 5546 5540 5536 5534 5534 5532 5532 5534 5537 5541 5547 5555 5563 5572 5579 5584 5587
5664 5658 5653 5648 5640 5632 5625 5618 5612 5604 5595 5587 5581 5576 5574 5571 5568 5565 5561 5558 5553 5550 5547 5543 5538 5535 5531 5528 5526 5525 5525 5525 5525 5526 5527 5531 5537 5545 5553 5558 5564 5573 5579